Terminal Aerodrome Forecast
Issued by NWS Mt. Holly, NJ

Home | Current Version | Previous Version | Text Only | Print | Product List | Glossary On
Versions: 1 2 3 4 5 6 7 8 9 10 11 12 13 14 15 16 17 18 19 20 21 22 23 24 25 26 27 28 29 30 31 32
000
FTUS41 KPHI 221700
TAFPHL
TAF
KPHL 221724Z 2218/2324 32015G19KT P6SM BKN045
      TEMPO 2219/2223 SCT045
     FM222300 31008KT P6SM FEW045
     FM230200 34005KT P6SM SKC=

USA.gov is the U.S. government's official web portal to all federal, state and local government web resources and services.